Clarion, IA

10:05 PM CST on February 10, 2016 (GMT -0600)
Clarion Municipal

Weather History for KCAV - November, 2013

Change the Weather History Date:

Friday, November 8, 2013

  Actual Average (KIFA) Record (KIFA)
Temperature  
Mean Temperature 38 °F -  
Max Temperature 53 °F 46 °F 70 °F (1980)
Min Temperature 24 °F 27 °F -2 °F (1991)
Degree Days  
Heating Degree Days 26    
Moisture  
Dew Point 30 °F    
Average Humidity 67    
Maximum Humidity 86    
Minimum Humidity 46    
Precipitation  
Precipitation 0.00 in - - ()
Sea Level Pressure  
Sea Level Pressure 29.95 in    
Wind  
Wind Speed 13 mph (South)    
Max Wind Speed 36 mph    
Max Gust Speed 47 mph    
Visibility 10 miles    
Events      
Averages and records for this station are not official NWS values.
T = Trace of Precipitation, MM = Missing Value Source: NWS Daily Summary

Daily Weather History Graph

Daily Weather History Graph

Search for Another Location

Airport or City:

Trip Planner

Search our weather history database for the weather conditions in past years. The results will help you decide how hot, cold, wet, or windy it might be!

Date:

Astronomy

Nov. 08, 2013 Rise Set
Actual Time 6:58 AM CST 4:58 PM CST
Civil Twilight 6:28 AM CST 5:28 PM CST
Nautical Twilight 5:54 AM CST 6:02 PM CST
Astronomical Twilight 5:21 AM CST 6:35 PM CST
Moon 11:54 AM CST (11/8) 10:20 PM CST (11/8)
Length of Visible Light 11h 00m
Length of Day
10h 00m
Waxing Crescent, 33% of the Moon is Illuminated
Nov 8
Waxing Crescent
Nov 9
First Quarter
Nov 17
Full
Nov 25
Last Quarter
Dec 2
New

Hourly Weather History & Observations

Time (CST) Temp. Windchill Dew Point Humidity Pressure Visibility Wind Dir Wind Speed Gust Speed Precip Events Conditions
12:15 AM 26.6 °F 17.5 °F 23.0 °F 86% 30.24 in 10.0 mi South 9.2 mph - N/A   Clear
12:35 AM 26.6 °F 19.1 °F 23.0 °F 86% 30.24 in - South 6.9 mph - N/A   Clear
12:55 AM 24.8 °F 16.1 °F 21.2 °F 86% 30.24 in 10.0 mi South 8.1 mph - N/A   Clear
1:15 AM 26.6 °F 18.2 °F 23.0 °F 86% 30.23 in 10.0 mi SSE 8.1 mph - N/A   Clear
1:35 AM 24.8 °F 17.9 °F 21.2 °F 86% 30.23 in 10.0 mi South 5.8 mph - N/A   Clear
1:55 AM 24.8 °F 15.3 °F 21.2 °F 86% 30.23 in 10.0 mi South 9.2 mph - N/A   Clear
2:15 AM 24.8 °F 16.9 °F 21.2 °F 86% 30.23 in 10.0 mi South 6.9 mph - N/A   Clear
2:35 AM 24.8 °F 16.9 °F 21.2 °F 86% 30.22 in 10.0 mi South 6.9 mph - N/A   Clear
2:55 AM 26.6 °F 18.2 °F 21.2 °F 80% 30.22 in 10.0 mi South 8.1 mph - N/A   Clear
3:15 AM 26.6 °F 19.1 °F 21.2 °F 80% 30.21 in 10.0 mi South 6.9 mph - N/A   Clear
3:35 AM 24.8 °F 16.1 °F 21.2 °F 86% 30.21 in 10.0 mi South 8.1 mph - N/A   Clear
3:55 AM 24.8 °F 16.1 °F 21.2 °F 86% 30.20 in 10.0 mi South 8.1 mph - N/A   Clear
4:15 AM 24.8 °F 15.3 °F 21.2 °F 86% 30.20 in 10.0 mi South 9.2 mph - N/A   Clear
4:35 AM 24.8 °F 15.3 °F 21.2 °F 86% 30.19 in 10.0 mi South 9.2 mph - N/A   Clear
4:55 AM 26.6 °F 18.2 °F 21.2 °F 80% 30.19 in 10.0 mi SSE 8.1 mph - N/A   Clear
5:15 AM 26.6 °F 17.5 °F 21.2 °F 80% 30.19 in 10.0 mi SSE 9.2 mph - N/A   Clear
5:35 AM 26.6 °F 18.2 °F 21.2 °F 80% 30.18 in 10.0 mi South 8.1 mph - N/A   Clear
5:55 AM 28.4 °F 20.4 °F 23.0 °F 80% 30.17 in 10.0 mi SSE 8.1 mph - N/A   Clear
6:15 AM 28.4 °F 18.5 °F 23.0 °F 80% 30.16 in 10.0 mi SSE 11.5 mph - N/A   Clear
6:35 AM 32.0 °F 22.5 °F 24.8 °F 75% 30.15 in 10.0 mi SSE 12.7 mph - N/A   Clear
6:55 AM 32.0 °F 22.5 °F 24.8 °F 75% 30.14 in 10.0 mi SSE 12.7 mph - N/A   Clear
7:15 AM 32.0 °F 23.0 °F 24.8 °F 75% 30.14 in 10.0 mi SSE 11.5 mph - N/A   Clear
7:35 AM 32.0 °F 23.0 °F 24.8 °F 75% 30.13 in 10.0 mi SSE 11.5 mph - N/A   Partly Cloudy
7:55 AM 32.0 °F 22.5 °F 24.8 °F 75% 30.11 in 10.0 mi SE 12.7 mph - N/A   Partly Cloudy
8:15 AM 33.8 °F 24.8 °F 26.6 °F 75% 30.11 in 10.0 mi SSE 12.7 mph - N/A   Scattered Clouds
8:35 AM 33.8 °F 25.8 °F 26.6 °F 75% 30.11 in 10.0 mi SSE 10.4 mph - N/A   Partly Cloudy
8:55 AM 35.6 °F 27.1 °F 26.6 °F 70% 30.10 in 10.0 mi SSE 12.7 mph 19.6 mph N/A   Clear
9:15 AM 37.4 °F 29.3 °F 26.6 °F 65% 30.08 in 10.0 mi SSE 12.7 mph 19.6 mph N/A   Clear
9:35 AM 37.4 °F 27.8 °F 26.6 °F 65% 30.07 in 10.0 mi SSE 17.3 mph - N/A   Clear
9:55 AM 39.2 °F 29.3 °F 26.6 °F 61% 30.05 in 10.0 mi SSE 20.7 mph - N/A   Clear
10:15 AM 41.0 °F 31.9 °F 26.6 °F 57% 30.04 in 10.0 mi SSE 19.6 mph - N/A   Clear
10:35 AM 41.0 °F 31.6 °F 26.6 °F 57% 30.02 in 10.0 mi SSE 20.7 mph 28.8 mph N/A   Clear
10:55 AM 42.8 °F 33.3 °F 26.6 °F 53% 30.00 in 10.0 mi SSE 24.2 mph 31.1 mph N/A   Clear
11:15 AM 42.8 °F 32.5 °F 26.6 °F 53% 29.97 in 10.0 mi SSE 28.8 mph 34.5 mph N/A   Clear
11:35 AM 46.4 °F 37.0 °F 26.6 °F 46% 29.94 in 10.0 mi SSE 31.1 mph 39.1 mph N/A   Clear
11:55 AM 46.4 °F 37.0 °F 28.4 °F 50% 29.91 in 10.0 mi SSE 31.1 mph 36.8 mph N/A   Clear
12:15 PM 48.2 °F - 30.2 °F 50% 29.89 in 8.0 mi SSE 27.6 mph 41.4 mph N/A   Clear
12:35 PM 48.2 °F - 30.2 °F 50% 29.85 in 10.0 mi SSE 28.8 mph 43.7 mph N/A   Clear
12:55 PM 50.0 °F - 32.0 °F 50% 29.82 in 10.0 mi SSE 32.2 mph 39.1 mph N/A   Clear
1:15 PM 50.0 °F - 32.0 °F 50% 29.80 in 10.0 mi SSE 33.4 mph 46.0 mph N/A   Clear
1:35 PM 50.0 °F - 32.0 °F 50% 29.78 in 10.0 mi SSE 35.7 mph 47.2 mph N/A   Clear
1:55 PM 50.0 °F - 32.0 °F 50% 29.76 in 10.0 mi SSE 31.1 mph 39.1 mph N/A   Clear
2:15 PM 53.6 °F - 33.8 °F 47% 29.76 in 10.0 mi SSE 32.2 mph 43.7 mph N/A   Clear
2:35 PM 51.8 °F - 32.0 °F 47% 29.76 in 10.0 mi SSE 28.8 mph 41.4 mph N/A   Clear
2:55 PM 51.8 °F - 33.8 °F 50% 29.77 in 10.0 mi South 25.3 mph - N/A   Clear
3:15 PM 51.8 °F - 33.8 °F 50% 29.76 in 10.0 mi SSE 20.7 mph 28.8 mph N/A   Clear
3:35 PM 51.8 °F - 35.6 °F 54% 29.75 in 10.0 mi South 18.4 mph - N/A   Clear
3:55 PM 51.8 °F - 35.6 °F 54% 29.74 in 10.0 mi South 21.9 mph 27.6 mph N/A   Clear
4:15 PM 51.8 °F - 35.6 °F 54% 29.74 in 10.0 mi South 17.3 mph 24.2 mph N/A   Clear
4:35 PM 51.8 °F - 35.6 °F 54% 29.74 in 10.0 mi South 19.6 mph - N/A   Clear
4:55 PM 51.8 °F - 35.6 °F 54% 29.73 in 10.0 mi South 18.4 mph 25.3 mph N/A   Clear
5:15 PM 51.8 °F - 35.6 °F 54% 29.72 in 10.0 mi SSE 17.3 mph - N/A   Scattered Clouds
5:35 PM 51.8 °F - 35.6 °F 54% 29.72 in 10.0 mi SSE 17.3 mph 23.0 mph N/A   Mostly Cloudy
5:55 PM 51.8 °F - 35.6 °F 54% 29.72 in 10.0 mi South 18.4 mph - N/A   Mostly Cloudy
6:15 PM 51.8 °F - 35.6 °F 54% 29.72 in 10.0 mi South 17.3 mph - N/A   Mostly Cloudy
6:35 PM 50.0 °F - 37.4 °F 62% 29.75 in 10.0 mi SSW 10.4 mph 18.4 mph N/A   Overcast
6:55 PM 51.8 °F - 37.4 °F 58% 29.74 in 10.0 mi South 16.1 mph - N/A   Overcast
7:15 PM 50.0 °F - 37.4 °F 62% 29.73 in 10.0 mi South 13.8 mph 20.7 mph N/A   Overcast
7:35 PM 50.0 °F - 37.4 °F 62% 29.74 in 10.0 mi South 12.7 mph - N/A   Overcast
7:55 PM 48.2 °F - 39.2 °F 71% 29.73 in 10.0 mi South 12.7 mph - N/A   Overcast
8:15 PM 50.0 °F - 37.4 °F 62% 29.74 in 10.0 mi SSW 11.5 mph - N/A   Overcast
8:35 PM 51.8 °F - 37.4 °F 58% 29.75 in 10.0 mi SW 12.7 mph 18.4 mph N/A   Overcast
8:55 PM 51.8 °F - 37.4 °F 58% 29.74 in 10.0 mi WSW 17.3 mph - N/A   Overcast
9:15 PM 50.0 °F - 39.2 °F 66% 29.75 in 10.0 mi West 16.1 mph - N/A   Overcast
9:35 PM 48.2 °F - 39.2 °F 71% 29.76 in 10.0 mi WSW 12.7 mph - N/A   Mostly Cloudy
9:55 PM 46.4 °F 41.1 °F 39.2 °F 76% 29.75 in 10.0 mi WSW 11.5 mph - N/A   Partly Cloudy
10:15 PM 44.6 °F 39.7 °F 37.4 °F 76% 29.75 in 10.0 mi SW 9.2 mph - N/A   Clear
10:35 PM 44.6 °F 40.2 °F 37.4 °F 76% 29.76 in 10.0 mi SW 8.1 mph - N/A   Clear
10:55 PM 44.6 °F 38.4 °F 37.4 °F 76% 29.75 in 10.0 mi SW 12.7 mph - N/A   Clear
11:15 PM 44.6 °F 38.1 °F 37.4 °F 76% 29.76 in 10.0 mi WSW 13.8 mph - N/A   Clear
11:35 PM 46.4 °F 39.0 °F 37.4 °F 71% 29.76 in 10.0 mi West 19.6 mph 25.3 mph N/A   Clear
11:55 PM 44.6 °F 38.1 °F 37.4 °F 76% 29.77 in 10.0 mi WSW 13.8 mph 20.7 mph N/A   Clear